Flag for Germany Weather past 2 weeks in Sondershausen, Thuringia, Germany

54 °F

Low clouds.

Feels Like: 54 °F
Forecast: 36 / 47 °F
Wind: 2 mph from West

Location: Erfurt-Bindersleben

Current Time: Oct 9, 2015 at 11:12:59 AM

Latest Report: Oct 9, 2015 at 11:00 AM

Visibility: 2 mi

Pressure: 30.14 "Hg

Humidity: 99%

Dew point: 54 °F

Location of SondershausenLocation

Historic Weather in Sondershausen — Graph


Sondershausen temperature yesterday

Maximum temperature yesterday: 59 °F (at 2:00 PM)
Minimum temperature yesterday: 53 °F (at 8:00 AM)
Average temperature yesterday: 55 °F

Past Weeks' High & Low Weather Summary

High69 °F (Oct 3, 4:00 PM)100% (Sep 30, 9:00 AM)30.65 "Hg (Sep 30, 9:00 AM)
Low33 °F (Oct 2, 7:00 AM)43% (Oct 1, 4:00 PM)29.70 "Hg (Oct 6, 5:00 PM)
Average53 °F77%30.22 "Hg
* Reported Sep 24 10:00 AM — Oct 9 10:00 AM, Sondershausen, Weather by CustomWeather, © 2015

Note: Actual official high and low records may vary slightly from our data, if they occured in-between our weather recording intervals... More about our weather records


Sondershausen weather history for previous 24 hours

Time TempWeatherWind HumidityBarometerVisibility
10:00 AM
Fri, Oct 9
54 °FDrizzle. Low clouds.2 mph99%30.14 "Hg2 mi
9:00 AM53 °FDrizzle. Low clouds.2 mph100%30.14 "Hg1 mi
8:00 AM53 °FDrizzle. Low clouds.1 mph100%30.13 "Hg2 mi
7:00 AM53 °FDrizzle. Low clouds.1 mph100%30.12 "Hg1 mi
5:00 AM53 °FFog.1 mph99%30.13 "Hg4 mi
4:00 AM53 °FFog.2 mph99%30.14 "Hg4 mi
3:00 AM53 °FLow clouds.2 mph99%30.14 "Hg4 mi
2:00 AM53 °FLight rain. Low clouds.2 mph99%30.14 "Hg4 mi
1:00 AM53 °FLow clouds.2 mph98%30.14 "Hg6 mi
11:00 PM
Thu, Oct 8
54 °FLow clouds.3 mph97%30.15 "Hg9 mi
10:00 PM54 °FLow clouds.3 mph99%30.14 "Hg9 mi
9:00 PM54 °FDrizzle. Low clouds.1 mph98%30.14 "Hg3 mi
8:00 PM54 °FDrizzle. Low clouds.2 mph97%30.14 "Hg6 mi
7:00 PM54 °FLow clouds.3 mph96%30.14 "Hg9 mi
6:00 PM54 °FDrizzle. Low clouds.3 mph94%30.12 "Hg6 mi
5:00 PM56 °FDrizzle. Overcast.5 mph88%30.11 "Hg19 mi
4:00 PM58 °FOvercast.5 mph79%30.10 "Hg31 mi
3:00 PM59 °FOvercast.5 mph78%30.09 "Hg28 mi
2:00 PM59 °FOvercast.6 mph78%30.09 "Hg25 mi
1:00 PM58 °FOvercast.6 mph79%30.09 "Hg25 mi
12:00 PM58 °FOvercast.6 mph82%30.08 "Hg25 mi
11:00 AM57 °FOvercast.6 mph81%30.07 "Hg25 mi
Weather by CustomWeather, © 2015

See weather overviewHow to use our weather pages